Date,TemperatureHighF,TemperatureAvgF,TemperatureLowF,DewpointHighF,DewpointAvgF,DewpointLowF,HumidityHigh,HumidityAvg,HumidityLow,PressureMaxIn,PressureMinIn,WindSpeedMaxMPH,WindSpeedAvgMPH,GustSpeedMaxMPH,PrecipitationSumIn
2013-1-1,34,26,19,10,2,-9,51,36,24,30.32,30.21,5,2,10,0.00
2013-1-2,38,27,18,8,4,-2,56,37,24,30.32,30.24,7,2,11,0.00
2013-1-4,48,40,32,2,-8,-20,22,14,5,30.27,30.21,1,1,5,0.01
2013-1-5,52,39,31,12,0,-16,38,21,9,30.29,30.09,2,0,6,0.02
2013-1-6,34,28,24,25,18,3,92,69,28,30.09,29.94,12,3,16,0.00
2013-1-7,33,26,19,22,15,7,93,66,35,30.27,29.98,7,2,17,0.00
2013-1-8,47,39,32,26,19,7,69,46,28,30.32,30.22,6,2,10,0.00
2013-1-9,55,44,37,28,22,15,66,43,26,30.24,29.83,12,2,21,0.01
2013-1-10,40,25,13,27,17,9,91,76,31,29.98,29.62,9,4,19,0.00
2013-1-11,22,15,10,12,9,6,89,78,57,30.22,29.98,3,1,7,0.00
2013-1-12,24,14,7,8,4,-1,88,66,35,30.27,30.15,8,1,9,0.00
2013-1-13,27,16,7,2,-1,-10,71,50,25,30.29,30.17,4,1,6,0.00
2013-1-14,20,12,4,2,-8,-16,68,41,23,30.61,30.28,15,4,22,0.00
2013-1-15,32,26,19,19,14,5,69,59,51,30.66,30.57,6,3,15,0.00
2013-1-16,45,37,28,19,14,2,64,41,23,30.58,30.34,8,3,13,0.00
2013-1-17,46,37,31,11,3,-8,34,25,13,30.35,30.23,5,2,9,0.00
2013-1-18,49,39,30,13,7,-9,41,27,14,30.30,30.20,8,2,9,0.00
2013-1-19,48,39,31,2,-6,-19,22,14,9,30.32,30.23,6,2,10,0.00
2013-1-20,48,40,32,6,-5,-14,20,15,8,30.27,30.16,5,2,8,0.00
2013-1-21,49,40,34,-1,-5,-13,18,14,10,30.24,30.15,6,2,9,0.00
2013-1-22,57,45,31,12,-1,-18,29,16,6,30.23,30.14,2,1,5,0.00
2013-1-23,54,46,41,34,27,15,71,49,30,30.17,30.02,8,2,16,0.02
2013-1-24,49,42,38,42,38,35,95,86,72,30.15,29.98,3,0,8,0.27
2013-1-25,46,40,38,42,38,35,97,93,85,30.15,29.93,1,0,4,0.30
2013-1-26,42,38,35,40,37,32,98,95,90,29.93,29.84,4,1,9,0.11
2013-1-27,35,31,21,34,27,18,96,86,73,29.91,29.81,9,3,14,0.01
2013-1-28,26,21,17,19,16,6,93,81,56,30.27,29.89,4,1,8,0.00
2013-1-29,48,37,20,27,20,9,73,52,41,30.33,30.26,8,2,11,0.16
2013-1-30,48,43,37,23,22,19,50,43,36,30.31,30.23,5,2,10,0.00
2013-1-31,47,40,35,26,24,19,65,53,38,30.26,30.17,7,2,11,0.00
2013-2-1,54,43,34,27,20,14,57,41,22,30.25,30.17,3,1,7,0.00
2013-2-2,55,45,37,27,22,15,52,40,25,30.24,30.13,4,1,7,0.00
2013-2-3,48,39,35,38,31,22,96,75,54,30.13,29.99,5,1,7,0.18
2013-2-4,50,41,33,27,22,6,71,49,28,30.14,30.05,5,2,10,0.00
2013-2-5,53,43,35,24,14,2,57,32,20,30.09,29.90,4,1,8,0.00
2013-2-6,47,39,32,24,6,-11,59,29,9,30.10,29.86,4,2,11,0.00
2013-2-7,49,38,27,25,6,-14,78,32,12,30.12,29.80,8,3,15,0.00
2013-2-8,26,20,17,22,18,14,91,89,81,29.91,29.72,10,2,15,0.00
2013-2-9,31,22,17,26,17,10,91,82,64,30.14,29.91,1,0,2,0.13
2013-2-10,36,23,16,20,13,7,84,64,38,30.15,30.05,5,1,7,0.00
2013-2-11,25,21,16,19,7,-5,90,59,34,30.39,30.10,10,2,14,0.00
2013-2-12,36,27,20,11,5,-1,48,39,28,30.48,30.38,4,2,9,0.00
2013-2-13,44,35,29,20,15,8,55,43,32,30.40,30.22,4,2,9,0.01
2013-2-14,42,36,31,23,19,15,62,50,40,30.32,30.20,6,2,12,0.00
2013-2-15,49,39,32,18,7,-5,54,28,12,30.35,30.28,9,4,18,0.00
2013-2-16,53,42,33,12,2,-16,30,19,8,30.35,30.03,6,2,7,0.00
2013-2-17,47,39,32,18,10,2,45,31,22,30.01,29.89,5,2,9,0.00
2013-2-18,51,38,28,24,11,-10,67,36,15,30.02,29.88,3,1,7,0.00
2013-2-19,43,30,21,24,10,-17,91,54,8,29.87,29.53,10,2,16,0.00
2013-2-20,27,20,14,24,18,11,93,90,84,30.08,29.49,4,1,12,0.00
2013-2-21,30,24,18,16,10,2,81,58,31,30.20,30.05,6,1,12,0.00
2013-2-22,40,31,19,17,9,2,59,41,26,30.31,30.20,3,1,8,0.14
2013-2-23,47,37,25,23,14,6,81,43,19,30.25,29.86,6,2,13,0.02
2013-2-24,30,24,17,9,-3,-16,54,31,15,30.36,29.98,8,4,24,0.00
2013-2-25,50,38,25,14,0,-20,31,20,11,30.38,30.07,4,1,6,0.00
2013-2-26,40,34,27,13,4,-6,35,28,18,30.19,29.99,6,2,10,0.00
2013-2-27,39,33,25,6,2,-4,33,26,22,30.42,30.21,9,2,11,0.00
2013-2-28,46,39,31,15,7,-1,38,27,23,30.45,30.39,7,3,13,0.00
2013-3-1,51,43,36,17,13,8,39,30,23,30.43,30.31,14,3,16,0.00
2013-3-2,59,47,36,22,14,2,51,28,12,30.35,30.11,3,1,8,0.00
2013-3-3,49,42,34,29,22,7,80,49,23,30.10,29.82,13,5,19,0.01
2013-3-4,49,39,30,31,26,4,92,64,24,30.13,29.87,7,2,12,0.00
2013-3-5,52,42,32,37,24,-6,84,52,14,30.10,29.91,5,1,9,0.00
2013-3-6,47,37,28,28,20,4,87,54,23,29.97,29.89,4,2,12,0.00
2013-3-7,40,31,24,31,26,21,93,83,63,29.91,29.83,5,2,10,0.00
2013-3-8,27,25,22,26,22,20,94,90,85,30.01,29.70,8,2,14,0.00
2013-3-9,37,30,24,27,23,19,94,78,57,30.32,30.01,5,2,14,0.06
2013-3-10,45,37,27,19,10,1,68,35,19,30.39,30.28,5,2,9,0.00
2013-3-11,54,46,36,13,4,-7,26,18,9,30.33,30.10,5,1,9,0.00
2013-3-12,58,50,40,25,17,0,47,28,17,30.14,30.06,8,2,11,0.00
2013-3-13,63,54,44,24,18,10,37,24,18,30.18,30.09,6,2,12,0.00
2013-3-14,68,58,45,29,21,15,34,25,18,30.12,30.02,8,2,12,0.00
2013-3-15,67,55,45,28,20,5,46,28,9,30.03,29.86,4,1,10,0.00
2013-3-16,62,54,44,22,20,18,39,27,19,29.83,29.81,3,1,10,0.00
2013-3-18,53,48,45,24,20,16,40,33,26,29.93,29.90,2,0,4,0.00
2013-3-19,59,48,39,30,25,16,54,41,25,30.02,29.89,7,2,9,0.00
2013-3-20,54,48,43,35,29,22,66,49,28,30.02,29.85,7,2,14,0.00
2013-3-21,64,49,39,30,19,-2,60,34,10,29.85,29.65,5,2,9,0.00
2013-3-22,56,44,35,23,10,-7,54,27,9,29.86,29.65,6,2,10,0.00
2013-3-23,56,48,38,24,12,-7,46,25,14,29.96,29.85,7,2,11,0.00
2013-3-24,57,51,41,23,17,11,44,26,17,29.95,29.88,3,1,10,0.00
2013-3-25,62,51,40,29,15,4,60,25,14,29.93,29.85,6,1,10,0.00
2013-3-26,58,46,38,32,16,-13,69,36,5,29.86,29.81,6,1,10,0.00
2013-3-27,52,43,36,33,29,20,84,58,43,29.96,29.80,5,2,15,0.00
2013-3-28,59,47,36,35,29,26,78,53,32,30.02,29.95,5,2,11,0.00
2013-3-29,60,48,36,36,30,26,72,53,29,30.06,30.00,10,1,10,0.00
2013-3-30,55,47,40,34,32,29,78,58,38,30.05,29.92,2,0,9,0.00
2013-3-31,54,43,35,36,33,28,86,68,42,29.96,29.90,4,2,10,0.00
2013-4-1,55,42,32,30,22,11,84,49,20,30.02,29.93,4,2,11,0.00
2013-4-2,55,44,31,29,24,13,81,48,28,30.07,29.98,9,2,12,0.00
2013-4-3,61,53,40,35,28,20,62,40,27,30.07,29.98,8,2,12,0.00
2013-4-4,61,50,40,39,26,16,74,43,18,30.01,29.86,5,2,10,0.00
2013-4-5,64,48,36,39,30,19,90,55,21,29.93,29.85,6,2,9,0.00
2013-4-6,64,50,38,35,22,12,54,34,22,29.93,29.83,3,1,11,0.00
2013-4-7,64,51,40,36,26,12,56,39,24,29.87,29.66,3,2,9,0.00
2013-4-8,42,34,28,32,27,24,96,79,53,29.75,29.32,14,4,17,0.03
2013-4-9,44,35,26,24,10,-4,83,41,16,30.11,29.75,10,3,14,0.00
2013-4-10,52,43,35,13,9,-1,38,26,11,30.17,30.07,12,5,22,0.00
2013-4-11,59,51,42,27,20,13,54,31,20,30.07,29.68,8,2,12,0.00
2013-4-12,60,51,41,32,25,22,53,38,24,29.80,29.70,7,1,14,0.00
2013-4-13,58,51,44,26,21,-7,46,32,10,29.81,29.65,14,3,17,0.00
2013-4-14,68,56,44,29,22,11,41,28,17,29.68,29.52,4,2,15,0.00
2013-4-15,64,47,37,24,12,-9,56,28,7,29.57,29.50,5,2,12,0.00
2013-4-16,45,35,25,26,14,-12,79,45,11,29.90,29.55,6,2,13,0.00
2013-4-17,42,32,22,21,10,1,87,46,19,30.26,29.90,8,3,16,0.00
2013-4-18,46,36,26,5,-1,-10,39,22,9,30.31,30.26,7,3,13,0.00
2013-4-19,58,49,36,14,5,-4,27,17,11,30.29,29.99,5,2,11,0.00
2013-4-20,65,54,42,29,20,15,44,28,14,29.97,29.90,6,2,12,0.00
2013-4-21,72,57,43,29,21,11,48,28,10,29.95,29.85,4,1,7,0.00
2013-4-22,74,60,48,28,18,-4,40,21,8,29.88,29.67,3,1,7,0.00
2013-4-23,60,52,44,27,17,8,48,27,15,29.83,29.67,8,2,12,0.00
2013-4-24,63,52,42,28,22,16,51,33,17,29.83,29.71,6,2,14,0.00
2013-4-25,60,50,38,28,20,11,60,33,15,29.97,29.70,6,1,13,0.00
2013-4-26,64,54,40,23,18,10,40,25,14,30.10,29.98,9,2,12,0.00
2013-4-27,66,57,44,27,15,6,48,22,10,30.11,29.98,9,2,11,0.00
2013-4-28,71,60,48,24,17,8,34,20,11,29.98,29.79,7,2,13,0.00
2013-4-29,73,63,49,27,20,7,32,20,13,29.81,29.63,11,3,13,0.00
2013-4-30,72,61,51,35,21,1,34,23,11,29.65,29.56,6,2,9,0.00
2013-5-1,59,52,46,29,6,-18,51,19,7,30.12,29.64,10,4,15,0.00
2013-5-2,60,49,43,-4,-12,-29,11,7,2,30.21,30.12,12,3,14,0.00
2013-5-3,66,55,40,14,2,-9,21,12,6,30.12,29.82,7,2,11,0.00
2013-5-4,67,54,45,34,15,6,47,23,11,29.80,29.55,7,2,14,0.00
2013-5-5,49,43,35,36,25,10,92,53,24,29.80,29.60,10,2,11,0.00
2013-5-6,51,40,33,39,34,29,96,82,56,29.91,29.78,8,2,14,0.01
2013-5-7,49,38,30,33,30,27,90,75,46,29.99,29.88,5,1,10,0.00
2013-5-8,52,42,30,40,33,27,95,73,48,30.03,29.98,8,2,10,0.00
2013-5-9,56,45,36,40,35,28,92,71,34,30.04,29.96,7,2,12,0.20
2013-5-10,60,52,41,42,34,28,88,55,30,30.10,30.02,11,3,15,0.00
2013-5-11,67,60,48,33,28,24,47,30,20,30.10,30.01,8,3,19,0.00
2013-5-12,74,63,50,32,24,19,42,24,15,30.07,29.92,8,2,11,0.00
2013-5-13,77,66,52,34,29,22,43,26,15,29.97,29.83,6,2,13,0.00
2013-5-14,72,62,49,28,22,11,36,22,13,29.84,29.69,8,2,18,0.00
2013-5-15,74,58,49,39,29,15,58,35,17,29.82,29.74,4,1,6,0.00
2013-5-16,71,54,50,31,0,-100,46,21,1,29.77,29.65,4,2,9,0.00
2013-5-17,59,48,42,37,26,-100,82,52,30,29.82,29.62,9,2,14,0.00
2013-5-18,67,53,38,36,29,23,88,43,20,29.92,29.82,5,1,8,0.00
2013-5-19,67,56,43,32,24,19,53,30,20,29.86,29.81,5,2,9,0.00
2013-5-20,65,57,48,25,20,16,38,24,18,29.91,29.85,5,2,10,0.00
2013-5-21,70,60,46,37,25,3,51,28,15,29.91,29.68,3,2,12,0.00
2013-5-22,68,55,46,30,17,-12,41,26,4,29.69,29.53,9,3,16,0.00
2013-5-23,66,54,44,30,0,-49,48,17,1,29.75,29.56,5,2,10,0.00
2013-5-24,70,55,41,38,15,-25,58,26,4,29.79,29.74,5,1,7,0.00
2013-5-25,71,54,41,20,6,-17,31,17,3,29.82,29.76,2,0,6,0.00
2013-5-26,70,55,44,35,20,-1,62,28,14,29.83,29.78,3,1,10,0.00
2013-5-27,72,57,44,42,28,15,59,36,14,29.81,29.69,5,1,9,0.00
2013-5-28,68,55,46,38,32,27,63,43,26,29.69,29.58,3,1,8,0.00
2013-5-29,71,60,46,42,29,15,59,32,13,29.70,29.60,4,1,13,0.00
2013-5-30,78,66,51,43,28,13,43,26,9,29.70,29.63,6,2,8,0.00
2013-5-31,73,66,56,25,22,6,26,18,11,29.77,29.66,5,2,14,0.00
2013-6-1,76,68,58,28,21,16,29,18,11,29.76,29.68,7,2,14,0.00
2013-6-2,82,68,55,42,32,23,44,28,14,29.69,29.50,7,1,10,0.00
2013-6-12,81,70,54,44,32,16,49,27,13,29.79,29.68,4,1,9,0.00
2013-6-13,79,70,55,25,16,-2,30,14,4,29.80,29.73,4,2,7,0.00
2013-6-14,80,69,52,33,20,-2,34,18,4,29.73,29.64,3,1,9,0.00
2013-6-15,76,68,47,25,13,-5,26,13,5,29.76,29.66,3,1,10,0.00
2013-6-16,75,67,53,19,14,-9,25,13,7,29.83,29.79,7,2,9,0.00
2013-6-17,81,70,50,27,18,3,28,16,6,29.80,29.73,4,1,5,0.00
2013-6-18,81,65,52,35,18,-1,43,20,4,29.74,29.60,3,1,9,0.00
2013-6-19,76,61,51,26,13,-12,31,18,3,29.66,29.57,3,1,8,0.00
2013-6-20,77,66,53,20,9,-20,17,11,4,29.66,29.62,4,2,5,0.00
2013-6-22,72,63,56,39,32,22,45,33,15,29.67,29.64,1,0,6,0.00
2013-6-23,76,64,53,36,28,22,51,28,17,29.66,29.55,4,2,10,0.00
2013-6-24,65,57,51,44,36,18,67,47,21,29.76,29.56,6,2,9,0.00
2013-6-25,79,67,48,49,44,39,80,47,26,29.82,29.74,4,1,8,0.00
2013-6-26,83,70,56,49,45,42,72,43,24,29.85,29.75,4,1,12,0.00
2013-6-27,81,70,58,47,42,36,55,39,26,29.88,29.83,7,1,11,0.00
2013-6-28,89,76,62,41,35,22,40,24,15,29.87,29.75,4,1,9,0.00
2013-6-29,89,78,65,38,32,23,34,20,12,29.79,29.65,3,1,6,0.00
2013-6-30,86,78,67,40,32,22,24,19,14,29.67,29.60,2,1,7,0.00
2013-7-1,83,74,63,49,40,32,48,31,20,29.70,29.63,4,1,9,0.00
2013-7-2,84,73,62,43,41,36,50,33,21,29.80,29.71,4,1,7,0.00
2013-7-3,90,79,69,45,41,36,39,27,19,29.73,29.59,4,1,11,0.00
2013-7-4,85,77,66,44,40,29,38,27,21,29.60,29.52,4,1,8,0.00
2013-7-5,85,76,64,45,36,29,51,26,14,29.60,29.53,3,1,9,0.00
2013-7-6,81,70,60,44,34,18,50,28,15,29.64,29.56,3,1,6,0.00
2013-7-7,86,73,60,39,32,20,30,22,17,29.70,29.60,4,2,7,0.00
2013-7-8,85,72,56,30,26,20,30,19,9,29.84,29.70,2,1,8,0.00
2013-7-9,87,75,61,38,31,22,29,21,12,29.86,29.79,3,1,9,0.00
2013-7-10,84,70,65,42,32,-100,37,26,18,29.82,29.67,4,1,7,0.00
2013-7-11,67,64,59,48,43,35,64,48,33,29.75,29.66,3,0,6,0.00
2013-7-12,74,63,55,51,45,35,70,53,37,29.82,29.74,2,0,7,0.00
2013-7-13,73,66,56,44,41,33,59,40,24,29.86,29.77,3,1,9,0.00
2013-7-14,78,68,58,47,41,34,47,38,27,29.82,29.70,2,0,6,0.00
2013-7-15,81,68,58,47,41,29,55,38,27,29.74,29.62,4,1,9,0.00
2013-7-16,83,65,52,38,30,23,41,29,14,29.80,29.68,4,1,9,0.00
2013-7-17,78,69,53,28,15,7,36,15,7,29.90,29.80,5,2,12,0.00
2013-7-18,82,76,66,25,22,20,19,13,11,29.85,29.74,5,2,10,0.00
2013-7-19,83,76,64,45,37,21,40,26,16,29.77,29.63,5,2,9,0.00
2013-7-20,78,67,63,58,44,-100,76,48,37,29.69,29.59,6,1,9,0.01
2013-7-21,69,62,55,58,55,52,94,80,58,29.78,29.61,5,0,7,0.75
2013-7-22,61,58,55,57,55,52,96,92,85,29.80,29.76,1,0,4,0.00